Miscellaneous Local Product
Issued by NWS Hastings, NE

Home | Current Version | Previous Version | Text Only | Print | Product List | Glossary On
Versions: 1 2 3 4 5 6 7 8 9 10 11 12 13 14 15 16 17 18 19 20 21 22 23 24 25 26 27 28 29 30 31 32 33 34 35 36 37 38 39 40 41 42 43 44 45 46 47 48 49 50
000
AXUS43 KGID 301302
MISGRI

GID CWA HOURLY WEATHER ROUNDUP
NATIONAL WEATHER SERVICE HASTINGS NE
700 AM CST FRI JAN 30 2015

NOTE: "FAIR" INDICATES FEW OR NO CLOUDS BELOW 12,000 FEET WITH NO
SIGNIFICANT WEATHER AND/OR OBSTRUCTIONS TO VISIBILITY.

...SOUTH CENTRAL NEBRASKA...

CITY           SKY/WX    TMP DP  RH WIND       PRES   REMARKS
GRAND ISLAND   PTCLDY    21  18  88 S7        30.47F WCI  12
HASTINGS       PTCLDY    21  17  84 S8        30.45F WCI  11
KEARNEY        PTCLDY    19  16  86 S8        30.44S WCI   9
ORD            PTCLDY    21  17  84 S6        30.42F WCI  13
YORK           FOG       14  14 100 CALM      30.50R VSB 1/4
AURORA         PTCLDY    21  20  95 S5        30.47S WCI  15
LEXINGTON      MOCLDY    25  20  83 SE7       30.41S WCI  17
HOLDREGE       MOCLDY    24  20  85 S8        30.42S WCI  15
HEBRON         PTCLDY    14  10  85 CALM      30.51F

...NEBRASKA PANHANDLE...

CITY           SKY/WX    TMP DP  RH WIND       PRES   REMARKS
CHADRON        CLOUDY    33  19  56 SW5       30.22S WCI  29
ALLIANCE       CLOUDY    25  21  85 SE7       30.23F WCI  17
SCOTTSBLUFF    CLOUDY    28  22  78 E7        30.23F WCI  21
SIDNEY         CLOUDY    27  21  78 S3        30.24F

...WESTERN AND NORTH CENTRAL NEBRASKA...

CITY           SKY/WX    TMP DP  RH WIND       PRES   REMARKS
VALENTINE      MOCLDY    23  17  78 CALM      30.30F
AINSWORTH      MOCLDY    24  20  83 S9        30.32F WCI  14
ONEILL         CLEAR     21  19  95 S8        30.40F WCI  11
BROKEN BOW     MOCLDY    22  18  85 SE7       30.38F WCI  13
IMPERIAL       CLOUDY    26  20  77 S6        30.32F WCI  19
NORTH PLATTE   CLOUDY    20  16  84 E6        30.36F WCI  12
MCCOOK         CLOUDY    22  17  81 CALM      30.39S

...EASTERN NEBRASKA...

CITY           SKY/WX    TMP DP  RH WIND       PRES   REMARKS
NORFOLK        PTCLDY    19  15  84 S7        30.47S WCI  10
SO SIOUX CITY  PTCLDY    18  15  88 S7        30.51S WCI   9
TEKAMAH        PTCLDY    14  10  84 CALM      30.53R
COLUMBUS       CLEAR     14   7  73 CALM      30.51R
ALBION         CLEAR     17  14  88 CALM      30.46F
OMAHA EPPLEY   PTCLDY    22  16  78 CALM      30.53S
OFFUTT AFB     CLEAR     12  10  89 CALM      30.53S
MILLARD        CLEAR     18  15  89 CALM      30.53S
LINCOLN        PTCLDY    13   9  84 CALM      30.54R
NEBRASKA CITY  PTCLDY    21  20  97 CALM      30.53R
BEATRICE       PTCLDY    12   9  87 CALM      30.53R
FALLS CITY     PTCLDY    16  12  84 W3        30.54R

...NORTHERN KANSAS...

CITY           SKY/WX    TMP DP  RH WIND       PRES   REMARKS
GOODLAND       CLOUDY    30  23  75 S14       30.33F WCI  19
HILL CITY      MOCLDY    19  14  81 W3        30.44F
NORTON         SUNNY     19  16  86 CALM      30.41
PHILLIPSBURG   CLEAR     21  18  86 E3        30.47S
SMITH CENTER   CLEAR     19  18  93 SE9       30.48S WCI   9
BELOIT         CLEAR     18  16  93 CALM      30.51S
HAYS           MOCLDY    19   9  63 CALM      30.45F
RUSSELL        MOCLDY    20  18  92 S7        30.46F WCI  11
CONCORDIA      FAIR      19  17  92 SE6       30.51S WCI  11
SALINA         MOCLDY    20  16  84 CALM      30.53S
TOPEKA         PTCLDY    18  15  88 CALM      30.55S



USA.gov is the U.S. government's official web portal to all federal, state and local government web resources and services.